Doylestown, PA

2:28 AM EST on February 23, 2018 (GMT -0500)
Doylestown

Weather History for KDYL - November, 2013

Change the Weather History Date:

Wednesday, November 20, 2013

  Actual Average (KTTN) Record (KTTN)
Temperature  
Mean Temperature 36 °F -  
Max Temperature 45 °F 50 °F 76 °F (1985)
Min Temperature 27 °F 33 °F 17 °F (1984)
Degree Days  
Heating Degree Days 29    
Moisture  
Dew Point 14 °F    
Average Humidity 49    
Maximum Humidity 75    
Minimum Humidity 19    
Precipitation  
Precipitation 0.00 in - - ()
Sea Level Pressure  
Sea Level Pressure 30.53 in    
Wind  
Wind Speed 6 mph (NNE)    
Max Wind Speed 12 mph    
Max Gust Speed -    
Visibility 10 miles    
Events      
Averages and records for this station are not official NWS values.
T = Trace of Precipitation, MM = Missing Value Source: NWS Daily Summary

Daily Weather History Graph

Daily Weather History Graph

Search for Another Location

Airport or City:

Trip Planner

Search our weather history database for the weather conditions in past years. The results will help you decide how hot, cold, wet, or windy it might be!

Date:

Astronomy

Nov. 20, 2013 Rise Set
Actual Time 6:52 AM EST 4:39 PM EST
Civil Twilight 6:22 AM EST 5:09 PM EST
Nautical Twilight 5:49 AM EST 5:42 PM EST
Astronomical Twilight 5:17 AM EST 6:14 PM EST
Moon 7:20 PM EST (11/20) 9:15 AM EST (11/20)
Length of Visible Light 10h 46m
Length of Day
9h 47m
Waning Gibbous, 91% of the Moon is Illuminated
Nov 20
Waning Gibbous
Nov 25
Last Quarter
Dec 2
New
Dec 9
First Quarter
Dec 17
Full

Hourly Weather History & Observations

Time (EST) Temp. Windchill Dew Point Humidity Pressure Visibility Wind Dir Wind Speed Gust Speed Precip Events Conditions
12:54 AM 30.9 °F 25.2 °F 21.0 °F 67% 30.38 in 10.0 mi Variable 5.8 mph - N/A   Clear
1:54 AM 30.9 °F 21.7 °F 21.0 °F 67% 30.38 in 10.0 mi North 11.5 mph - N/A   Clear
2:54 AM 30.0 °F 21.7 °F 19.9 °F 66% 30.41 in 10.0 mi North 9.2 mph - N/A   Clear
3:54 AM 30.0 °F 23.2 °F 19.9 °F 66% 30.43 in 10.0 mi North 6.9 mph - N/A   Clear
4:54 AM 28.0 °F 20.8 °F 19.9 °F 72% 30.45 in 10.0 mi NNE 6.9 mph - N/A   Clear
5:54 AM 27.0 °F 23.0 °F 19.9 °F 75% 30.48 in 10.0 mi NE 3.5 mph - N/A   Clear
6:54 AM 28.0 °F 24.2 °F 19.9 °F 72% 30.51 in 10.0 mi NNE 3.5 mph - N/A   Clear
7:54 AM 30.0 °F 22.4 °F 21.0 °F 69% 30.52 in 10.0 mi North 8.1 mph - N/A   Clear
8:54 AM 35.1 °F 27.9 °F 19.0 °F 52% 30.55 in 10.0 mi NNE 9.2 mph - N/A   Clear
9:54 AM 37.0 °F 31.0 °F 19.0 °F 48% 30.56 in 10.0 mi North 8.1 mph - N/A   Clear
10:54 AM 39.0 °F 34.8 °F 16.0 °F 39% 30.57 in 10.0 mi Variable 5.8 mph - N/A   Clear
11:54 AM 42.1 °F 39.2 °F 14.0 °F 32% 30.56 in 10.0 mi Variable 4.6 mph - N/A   Clear
12:54 PM 43.0 °F 39.5 °F 9.0 °F 25% 30.56 in 10.0 mi Variable 5.8 mph - N/A   Clear
1:54 PM 45.0 °F - 10.0 °F 24% 30.55 in 10.0 mi North - - N/A   Clear
2:54 PM 43.0 °F 41.3 °F 10.9 °F 27% 30.54 in 10.0 mi Variable 3.5 mph - N/A   Clear
3:54 PM 43.0 °F 41.3 °F 3.0 °F 19% 30.54 in 10.0 mi Variable 3.5 mph - N/A   Clear
4:54 PM 37.9 °F - 5.0 °F 25% 30.55 in 10.0 mi Calm Calm - N/A   Clear
5:54 PM 34.0 °F - 8.1 °F 34% 30.56 in 10.0 mi Calm Calm - N/A   Clear
6:54 PM 30.9 °F - 10.9 °F 43% 30.57 in 10.0 mi Calm Calm - N/A   Clear
7:54 PM 28.9 °F - 12.0 °F 49% 30.59 in 10.0 mi Calm Calm - N/A   Clear
8:54 PM 28.0 °F - 10.9 °F 49% 30.60 in 10.0 mi Calm Calm - N/A   Clear
9:54 PM 27.0 °F - 12.9 °F 56% 30.60 in 10.0 mi Calm Calm - N/A   Clear
10:54 PM 28.0 °F 24.2 °F 12.0 °F 51% 30.61 in 10.0 mi NE 3.5 mph - N/A   Clear
11:54 PM 28.9 °F 21.9 °F 12.0 °F 49% 30.61 in 10.0 mi NE 6.9 mph - N/A   Clear